User: anonymous   Login
Location: Adrasan
(36.3319°N, 30.4314°E)
Time: 13:44:28
(UTC+00:00)
Language:

NOAA 6 - Orbit

View from above orbital plane
View from above orbital plane
View from above satellite
View from above satellite

Ground track
Ground track

The orbit data is extracted from the following two-line orbital elements,

1 11416U 79057A   24104.03499444  .00000439  00000-0  17161-3 0  9994
2 11416  98.6347 125.3251 0011381  93.5311 266.7176 14.34422877337120
Epoch (UTC): 13 April 2024 00:50:23
Eccentricity: 0.0011381
inclination: 98.6347°
perigee height: 769 km
apogee height: 785 km
right ascension of ascending node: 125.3251°
argument of perigee: 93.5311°
revolutions per day: 14.34422877
mean anomaly at epoch: 266.7176°
orbit number at epoch: 33712

The dashed part of the orbit path shows where the satellite is in the earth's shadow,  

DLR